Flag for Australia Weather past 2 weeks in Traralgon, Victoria, Australia

Now
54 °F

Cool.


Feels Like: 51 °F
Forecast: 46 / 76 °F
Wind: 9 mph from Southwest

Location: Latrobe Valley Airport

Current Time: Dec 20, 2014 at 12:01:50 AM

Latest Report: Dec 19, 2014 at 10:00 PM


Visibility: N/A

Pressure: 30.11 "Hg

Humidity: 73%

Dew point: 46 °F

Location of TraralgonLocation

Historic Weather in Traralgon — Graph

°F

Traralgon temperature yesterday

Maximum temperature yesterday: 67 °F (at 3:00 PM)
Minimum temperature yesterday: 50 °F (at 6:00 AM)
Average temperature yesterday: 59 °F

Past Weeks' High & Low Weather Summary

 TemperatureHumidityPressure
High92 °F (Dec 16, 4:00 PM)100% (Dec 5, 9:00 AM)30.19 "Hg (Dec 5, 9:00 AM)
Low47 °F (Dec 18, 6:00 AM)15% (Dec 16, 4:00 PM)29.21 "Hg (Dec 16, 4:00 PM)
Average63 °F80%29.84 "Hg
* Reported Dec 4 10:00 PM — Dec 19 10:00 PM, Traralgon, Weather by CustomWeather, © 2014

Note: Actual official high and low records may vary slightly from our data, if they occured in-between our weather recording intervals... More about our weather records

Advertising

Traralgon weather history for previous 24 hours

 ConditionsComfort  
Time TempWeatherWind HumidityBarometerVisibility
10:00 PM
Dec 19
54 °FCool.9 mph73%30.11 "HgN/A
9:00 PM57 °FCool.15 mph63%30.09 "HgN/A
7:00 PM64 °FMild.17 mph48%30.04 "HgN/A
6:00 PM65 °FPartly sunny.21 mph43%30.03 "HgN/A
4:00 PM66 °FMild.16 mph44%30.01 "HgN/A
3:00 PM67 °FOvercast.16 mph49%30.02 "HgN/A
1:00 PM67 °FMild.15 mph42%30.01 "HgN/A
12:00 PM65 °FPartly sunny.14 mph50%30.01 "HgN/A
10:00 AM62 °FMild.14 mph54%29.98 "HgN/A
9:00 AM57 °FPartly sunny.12 mph85%29.99 "HgN/A
7:00 AM53 °FCool.10 mph97%29.95 "HgN/A
6:00 AM50 °FScattered clouds.3 mph99%29.94 "HgN/A
4:00 AM52 °FCool.10 mph94%29.90 "HgN/A
3:00 AM53 °FPassing clouds.8 mph96%29.89 "HgN/A
1:00 AM54 °FCool.12 mph93%29.89 "HgN/A
12:00 AM54 °FPassing clouds.12 mph94%29.89 "HgN/A
Weather by CustomWeather, © 2014

See weather overviewHow to use our weather pages